sat.trackr.live / text

‹ back to catalog

STARLINK-2169

NORAD 47752 · 2021-017AG

PAYLOAD ACTIVE UNKNOWN

§ Identity

Operator
Country
US
Launch date
2021-03-04
Launch site
AFETR
Launch vehicle
Mass (kg)
RCS (m²)

Purposes: comms

External: N2YO · Heavens-Above · Gunter

§ Orbital elements

Epoch: 2026-09-07T19:43:46.361568Z

Period
88.43 min
Inclination
53.1332°
Eccentricity
0.0013889
Mean motion
16.28388639 rev/d
Perigee alt
187.7 km
Apogee alt
206.0 km
Semi-major
6,575.0 km
B*
8.1638e-4
RAAN
27.3903°
Arg perigee
312.7027°
Mean anomaly
47.2845°
Rev number
30,647

§ Raw data

STARLINK-21691 47752U 21017AG  26250.82206437  .03380343  12064-4  81638-3 0  99932 47752  53.1332  27.3903 0013889 312.7027  47.2845 16.28388639306473

JSON: /api/v1/satellites/47752 · /tle

For live sub-satellite position, see the globe view (requires WebGL).

§ Visibility from observer

Set your observer location to see the next 7 days of passes ≥ 10°. The values pass through the URL so the page stays shareable.

No JS? Fill the form by hand. The geolocation button needs JavaScript.